Temperature
22 22 22 21 21 21 21 20 20 20 19 19 19 18 18 18 18 18 18 18 18 18 17 17 17 17 17 17 17 17 17 17 17 17 17 17 17 17 17 17 17 17 17
21 21 21 21 21 21 21 21 20 20 19 19 19 18 18 18 18 18 18 18 18 18 17 18 17 17 17 17 17 17 17 17 17 17 17 17 17 17 17 17 17 17 17
22 22 21 21 21 21 21 21 20 20 19 19 19 18 18 18 18 18 18 18 18 18 18 17 17 17 17 17 17 17 17 17 17 17 17 17 17 17 17 17 17 17 17
22 22 22 22 22 21 21 21 20 20 19 19 18 18 18 18 18 18 18 18 18 18 18 17 17 17 17 17 17 17 17 17 17 17 17 17 17 17 17 17 17 17 17
22 22 22 22 22 21 21 20 20 20 19 19 18 18 18 18 18 18 18 18 18 18 18 17 17 17 17 17 17 17 17 17 17 17 17 17 17 17 17 17 18 18 18
22 22 22 21 21 21 20 20 20 19 19 19 18 18 18 18 18 18 18 18 18 18 18 17 17 17 17 17 17 17 17 17 17 17 17 17 17 17 17 17 17 18 18
22 21 21 21 21 21 20 20 19 19 19 18 18 18 18 18 18 18 18 18 18 18 18 18 17 17 17 17 17 17 17 17 17 17 17 17 17 17 17 17 17 17 17
21 21 21 21 21 21 20 20 19 19 19 18 18 18 18 18 18 18 18 18 18 18 18 18 17 17 17 17 17 17 17 17 17 17 17 17 17 17 17 17 17 17 17
21 21 21 21 21 20 20 19 19 19 19 18 18 18 17 17 17 18 18 18 17 17 17 17 17 17 17 17 17 17 17 17 16 17 17 17 17 17 17 17 17 17 16
21 21 21 20 20 20 19 19 19 18 18 18 18 18 17 17 17 17 17 17 17 17 17 17 17 17 17 17 17 17 17 16 16 16 16 16 16 16 16 16 16 16 16
21 21 20 20 20 19 19 19 19 18 18 18 18 17 17 17 17 17 17 17 17 17 17 17 17 17 17 16 16 16 16 16 16 16 16 16 16 16 16 16 16 16 16
21 20 20 20 20 19 19 19 18 18 18 17 17 17 17 17 17 17 17 17 17 17 17 17 16 16 16 16 16 16 16 16 16 16 16 16 16 16 16 16 16 16 16
20 20 19 19 19 19 19 18 18 18 18 18 17 17 17 17 17 17 17 16 16 16 16 16 16 16 16 16 16 16 16 16 16 16 16 16 16 15 15 15 15 15 15
19 19 19 19 19 19 19 18 18 18 18 17 17 17 17 17 17 16 16 16 16 16 16 16 16 16 16 15 15 15 15 15 15 15 15 15 15 15 15 15 15 15 15
19 19 19 19 18 18 18 18 18 18 17 17 17 17 17 17 16 16 16 16 16 15 15 15 15 15 15 15 15 15 15 15 15 15 15 15 15 15 15 14 14 14 14
18 19 19 18 18 18 18 18 18 17 17 17 17 16 16 16 16 15 15 15 15 15 15 15 15 15 15 14 14 15 15 14 14 14 14 14 14 14 14 14 14 14 14
18 18 18 18 18 18 18 18 17 17 16 16 16 16 16 16 15 15 15 15 14 14 15 14 14 14 14 14 14 14 14 14 14 14 14 14 14 14 13 13 13 13 13
18 18 18 18 18 18 18 17 17 16 16 16 16 16 15 15 15 15 14 14 14 14 14 14 14 13 13 13 13 14 14 14 13 13 13 13 13 13 13 13 13 12 12
19 18 18 18 18 17 17 17 16 16 16 16 15 15 15 15 15 14 14 14 14 14 13 13 13 13 13 13 13 13 13 13 13 13 12 12 12 12 12 12 12 12 11
18 18 18 18 17 17 17 16 16 16 15 15 15 15 15 15 14 14 14 13 13 13 13 13 13 13 13 13 13 13 13 13 12 12 12 12 12 11 11 12 11 11 11
18 17 17 17 17 16 16 16 15 15 15 15 15 14 14 14 14 13 13 13 13 13 12 12 12 12 12 12 12 12 12 12 12 11 11 11 11 11 11 11 11 10 10
17 17 16 16 16 16 16 15 15 15 14 14 14 14 14 13 13 13 13 13 12 12 12 12 12 11 11 11 11 11 11 11 11 11 10 10 10 10 10 10 10 9 9
16 16 16 16 15 15 15 15 15 14 14 14 14 13 13 13 12 12 12 12 12 12 11 11 11 11 11 11 11 11 11 10 10 10 10 9 9 9 9 9 9 9 8
16 16 15 15 15 14 14 14 14 14 14 13 13 13 12 12 12 11 11 11 11 11 11 11 10 10 10 10 10 10 10 10 10 9 9 9 9 8 8 8 8 8 8
15 15 15 15 14 14 14 14 13 13 13 13 12 12 12 11 11 11 11 10 10 10 10 10 10 10 10 9 9 9 9 9 9 9 8 8 8 8 7 7 7 7 7
15 14 14 14 14 13 13 13 13 13 12 12 12 11 11 11 11 10 10 10 10 9 9 9 9 9 9 9 9 9 9 8 8 8 8 7 7 7 6 6 6 6 6
Wind_Speed
6 7 9 10 10 9 9 10 10 9 7 5 5 4 4 4 4 6 10 11 12 12 10 6 6 6 5 5 5 3 3 2 2 2 1 1 1 3 4 5 6 8 10
6 7 8 9 10 10 10 11 11 10 9 7 5 3 3 3 4 4 7 11 12 12 11 8 7 7 5 5 5 4 3 2 3 3 2 1 2 2 4 4 6 7 8
8 8 8 8 9 9 10 10 9 9 8 7 4 3 3 2 2 4 5 8 11 12 11 10 8 7 7 7 7 6 6 4 3 2 4 3 4 2 2 3 5 6 6
7 7 8 7 8 8 7 7 8 8 7 8 7 7 6 5 6 5 5 5 8 10 11 10 10 8 7 7 7 7 5 5 4 2 2 2 3 3 1 2 3 5 6
8 8 7 7 6 6 7 7 7 7 7 8 9 7 5 4 3 3 4 5 5 7 9 10 9 8 7 7 7 7 6 5 5 4 3 2 1 2 2 3 2 2 4
7 6 5 5 4 4 5 6 7 6 7 8 8 8 7 5 5 5 5 4 4 4 6 8 7 7 6 7 7 7 8 7 6 5 4 4 3 4 3 4 3 3 3
6 6 6 6 5 5 5 6 7 6 6 6 6 7 7 6 7 6 6 5 4 4 6 6 6 6 7 7 7 7 7 7 7 7 5 5 4 3 4 3 3 3 2
6 6 5 5 5 5 6 6 7 6 6 6 6 5 5 5 5 5 5 6 5 6 5 6 7 7 8 8 7 6 7 6 8 8 7 5 5 5 4 4 4 2 2
6 6 6 5 5 5 5 6 6 5 5 5 5 4 4 4 4 4 4 4 4 4 5 6 6 7 7 8 7 6 7 7 7 7 7 6 5 5 5 4 4 4 3
5 5 5 5 4 4 4 4 5 4 3 3 3 3 2 3 3 2 3 3 3 3 4 5 6 6 6 7 7 6 6 6 6 5 6 5 4 4 4 4 4 4 4
6 5 5 5 5 4 5 5 4 4 3 3 2 2 1 1 1 1 2 2 2 3 4 4 4 5 5 5 5 6 6 7 6 5 5 5 4 3 3 3 4 4 4
6 5 5 6 6 5 4 4 4 4 4 3 3 2 2 2 1 1 0 1 1 1 2 2 3 4 4 4 5 6 6 6 6 5 5 4 3 3 2 3 3 4 4
6 6 5 5 5 5 5 4 4 5 5 4 4 3 3 3 2 1 1 1 1 1 1 1 1 1 2 3 4 4 4 5 5 5 5 4 4 3 2 2 3 3 3
7 6 5 5 5 4 5 5 5 5 6 5 5 4 4 3 2 2 2 2 2 2 1 1 0 0 1 2 2 3 3 4 4 4 4 4 4 4 3 2 3 2 2
7 7 6 5 5 5 4 5 5 5 5 6 5 4 4 4 4 4 4 4 3 3 2 2 2 1 1 0 1 2 3 3 3 2 2 3 3 4 3 2 2 2 2
8 7 7 6 5 5 5 6 6 5 6 6 5 5 5 5 5 4 4 5 5 4 4 4 3 3 3 3 4 4 4 4 4 3 3 3 4 5 5 5 5 4 3
9 8 7 7 6 5 6 6 6 6 6 6 6 5 5 5 5 5 5 5 5 5 5 5 5 5 5 5 6 7 6 6 5 4 3 4 4 5 5 8 10 10 9
9 7 7 6 6 6 7 7 8 7 7 6 6 5 5 6 5 5 5 5 5 5 5 5 5 5 6 7 8 9 8 7 7 6 5 5 5 5 6 7 8 8 8
8 7 6 6 7 7 8 9 8 8 7 6 6 5 5 6 6 5 5 4 5 5 5 4 5 5 5 7 7 8 7 7 7 7 7 6 6 7 8 8 8 8 8
8 8 8 8 8 6 8 9 8 7 6 6 5 5 5 5 5 5 4 4 5 6 5 6 6 7 6 8 9 7 6 7 7 7 7 10 9 9 9 8 8 8 6
10 9 8 7 6 6 8 9 8 6 5 6 6 6 6 5 5 5 5 5 5 7 7 8 8 8 8 9 10 8 6 6 7 6 6 6 11 11 11 9 8 7 6
11 10 9 7 6 6 9 9 7 6 6 7 8 7 6 6 5 6 6 6 6 7 7 8 8 8 8 9 10 12 10 8 8 6 5 7 11 12 12 9 9 10 8
10 9 9 8 6 5 7 9 6 7 8 8 8 7 8 8 7 7 7 6 6 6 6 6 7 6 6 8 13 13 13 13 9 8 11 11 12 11 10 12 11 8 6
10 9 10 9 7 6 6 7 7 7 9 9 8 7 8 8 8 7 6 6 5 5 5 5 6 5 6 6 6 7 8 11 10 9 11 14 14 11 11 10 8 7 6
8 9 9 9 8 7 7 7 7 9 10 9 8 8 7 8 9 9 8 7 6 4 5 4 4 5 5 4 6 6 6 6 7 7 7 7 7 8 8 7 7 7 6
8 9 9 9 8 7 7 6 6 8 10 8 7 6 6 7 7 8 9 15 12 14 13 10 7 6 7 9 12 13 12 12 11 9 8 7 7 7 6 6 6 6 6
Wind_Direction
190 178 179 183 185 184 178 181 191 189 177 174 181 189 203 203 201 208 210 205 200 194 189 191 186 183 185 188 175 157 149 148 132 107 54 351 281 234 233 229 227 230 230
177 179 178 179 187 188 185 184 190 187 185 188 183 180 179 196 206 206 207 208 202 195 195 191 190 186 183 180 178 161 152 168 163 146 127 344 315 275 235 224 228 233 231
189 185 183 187 184 188 191 192 186 185 183 172 150 135 129 137 182 203 208 209 205 202 199 196 191 188 187 191 191 179 170 179 191 178 155 165 222 266 279 233 230 229 226
181 186 188 188 188 190 186 179 175 178 175 168 171 174 184 194 203 200 204 203 204 204 204 199 194 191 191 194 196 188 182 171 188 197 203 187 164 175 255 282 246 236 233
178 190 191 189 185 174 176 175 173 175 175 178 184 187 196 200 186 183 190 199 203 204 205 203 199 196 195 198 197 188 190 188 189 187 179 180 173 183 188 250 274 263 243
171 179 172 162 159 154 162 168 173 181 180 183 187 191 195 194 188 193 197 201 207 206 207 205 202 201 200 201 201 197 197 200 195 195 189 179 179 192 190 218 242 257 268
153 154 155 158 159 158 163 164 171 181 181 183 189 195 199 196 203 204 204 204 209 214 215 208 205 207 208 207 200 198 205 204 200 204 207 205 206 184 180 192 219 244 273
144 147 156 156 156 159 156 158 171 180 181 188 194 197 198 200 209 209 205 210 217 221 214 207 209 212 210 211 204 208 212 210 212 216 209 211 214 198 192 186 182 219 267
142 144 149 150 148 151 154 158 163 170 179 187 186 185 189 197 207 211 209 217 223 225 213 210 212 216 212 210 203 211 214 209 212 213 209 211 216 206 205 197 191 191 230
136 138 141 143 141 142 136 133 142 156 160 159 164 170 179 198 204 203 211 225 234 235 221 215 212 214 214 210 204 207 210 205 210 210 210 212 214 207 207 206 205 200 208
145 144 147 139 127 115 117 124 128 119 111 120 129 125 136 165 180 203 226 227 228 216 214 217 212 212 213 205 199 207 201 203 208 207 207 212 209 212 212 207 203 205 204
137 140 135 128 125 123 124 123 119 114 111 108 103 107 98 83 80 71 269 210 201 206 212 213 211 213 210 200 197 204 202 198 200 202 199 207 204 209 210 204 209 211 210
126 124 123 124 126 130 126 119 114 113 107 101 96 87 79 79 71 37 28 61 73 64 72 111 171 197 197 194 198 196 197 194 193 190 192 198 185 198 207 211 216 215 213
138 134 131 125 126 129 131 131 120 112 106 100 94 83 73 66 59 54 54 55 58 57 55 61 83 160 182 191 188 181 184 183 183 185 186 186 182 188 190 204 210 197 188
144 143 137 133 131 128 124 116 108 102 101 99 91 83 76 70 63 57 54 52 51 50 52 61 52 41 67 159 158 158 157 157 154 143 138 146 140 148 155 170 181 171 165
156 148 139 137 133 132 125 113 106 99 96 96 92 85 81 76 68 59 54 53 49 49 54 57 58 49 45 55 95 111 119 124 129 122 107 107 108 105 102 96 95 110 137
156 149 146 143 137 132 124 122 112 102 97 93 88 84 84 79 70 67 61 55 52 53 55 52 56 56 46 63 83 89 100 100 103 103 96 90 82 87 92 84 77 70 72
153 147 141 130 123 119 112 107 103 102 100 93 85 80 79 76 67 62 56 50 54 59 58 54 57 62 55 69 81 87 85 81 76 77 83 86 79 83 95 94 81 68 58
143 136 128 122 122 120 119 111 104 102 98 92 85 81 84 82 75 66 56 51 60 60 60 57 57 63 54 59 76 87 86 81 73 67 66 77 81 79 89 96 91 79 68
119 119 114 110 112 116 118 113 109 105 99 93 87 83 86 89 83 75 66 61 65 64 67 64 59 63 59 56 66 83 92 87 78 67 62 67 78 83 89 96 97 91 76
116 112 108 107 111 116 116 112 108 103 100 94 86 81 81 84 82 76 72 73 75 72 68 66 57 54 51 52 60 73 87 95 89 79 69 67 77 79 80 83 88 96 93
117 114 111 103 100 110 116 114 110 106 101 96 88 80 74 79 79 77 72 72 79 80 76 70 61 48 45 53 61 69 76 86 90 82 74 72 75 74 73 78 83 84 83
118 116 114 106 96 98 117 120 116 112 106 97 89 85 80 72 70 75 74 69 69 80 80 79 72 56 49 51 58 65 71 76 82 82 81 76 72 71 69 67 69 71 75
119 118 115 112 104 98 101 110 114 112 106 98 91 89 89 79 68 65 65 71 68 80 86 87 83 72 60 54 57 67 74 76 81 81 75 71 67 66 62 59 56 56 63
116 116 119 119 117 112 105 105 111 113 106 101 99 95 91 92 81 70 58 63 53 76 99 98 97 92 77 50 71 90 86 87 92 88 73 65 62 60 56 54 51 49 50
119 116 114 117 119 115 109 104 109 115 113 107 103 102 100 95 94 92 76 57 64 66 69 76 87 73 83 87 81 78 79 81 86 83 78 70 66 65 61 58 52 47 45
Height
1517 1519 1521 1524 1527 1530 1532 1535 1537 1540 1542 1544 1546 1548 1550 1552 1554 1556 1558 1561 1563 1565 1567 1569 1570 1572 1574 1575 1577 1578 1579 1580 1582 1583 1583 1584 1584 1585 1586 1586 1587 1588 1588
1515 1517 1519 1522 1524 1527 1530 1532 1535 1538 1540 1542 1544 1546 1548 1550 1552 1554 1556 1558 1561 1563 1565 1567 1569 1570 1572 1573 1575 1576 1577 1579 1580 1581 1582 1582 1584 1583 1584 1584 1585 1586 1586
1512 1515 1517 1519 1521 1524 1527 1530 1532 1535 1537 1540 1542 1544 1546 1548 1550 1551 1553 1555 1558 1560 1562 1564 1566 1568 1569 1571 1572 1574 1575 1576 1578 1579 1580 1581 1580 1581 1582 1582 1583 1583 1584
1510 1512 1515 1517 1519 1521 1524 1528 1530 1533 1535 1537 1539 1541 1542 1544 1546 1549 1551 1553 1555 1558 1560 1562 1564 1565 1567 1568 1570 1571 1573 1574 1575 1576 1577 1579 1579 1579 1579 1580 1581 1581 1582
1507 1510 1513 1515 1518 1520 1523 1525 1528 1530 1532 1534 1536 1538 1540 1542 1544 1546 1548 1550 1552 1554 1556 1558 1560 1562 1564 1565 1567 1568 1570 1571 1572 1574 1575 1576 1576 1577 1578 1577 1578 1579 1579
1505 1508 1511 1514 1516 1518 1520 1522 1525 1527 1529 1531 1534 1536 1538 1540 1541 1543 1545 1547 1549 1551 1553 1555 1556 1558 1560 1562 1564 1565 1567 1568 1569 1570 1572 1573 1573 1574 1575 1575 1575 1576 1576
1503 1507 1509 1512 1514 1516 1518 1520 1522 1525 1527 1529 1531 1533 1535 1537 1538 1540 1542 1544 1545 1547 1549 1551 1553 1554 1556 1558 1560 1561 1562 1564 1565 1567 1568 1569 1570 1571 1572 1572 1572 1572 1573
1503 1506 1509 1511 1513 1515 1517 1519 1521 1523 1525 1527 1529 1531 1532 1534 1535 1537 1538 1540 1542 1544 1546 1547 1549 1550 1552 1553 1555 1557 1558 1560 1561 1563 1564 1565 1566 1568 1569 1569 1570 1569 1570
1502 1505 1507 1510 1512 1514 1516 1518 1520 1522 1523 1525 1527 1528 1529 1531 1532 1534 1535 1537 1538 1540 1541 1543 1544 1546 1547 1549 1550 1552 1553 1555 1557 1558 1560 1561 1562 1563 1564 1565 1566 1567 1566
1502 1505 1507 1510 1512 1514 1516 1518 1519 1521 1522 1524 1525 1526 1527 1529 1530 1531 1532 1533 1535 1536 1537 1538 1540 1541 1543 1544 1546 1547 1549 1550 1552 1554 1555 1556 1558 1559 1560 1561 1562 1563 1563
1501 1504 1507 1509 1511 1514 1515 1517 1518 1519 1521 1523 1524 1525 1526 1527 1528 1529 1530 1531 1531 1532 1533 1534 1535 1536 1538 1540 1541 1542 1544 1545 1547 1549 1550 1552 1553 1554 1555 1556 1557 1558 1559
1502 1504 1506 1509 1511 1513 1515 1517 1518 1519 1521 1522 1523 1524 1525 1525 1526 1527 1528 1528 1529 1529 1529 1530 1531 1532 1533 1535 1536 1538 1539 1541 1542 1544 1546 1547 1548 1550 1551 1552 1552 1553 1554
1502 1504 1507 1509 1511 1513 1515 1517 1518 1519 1521 1522 1523 1524 1525 1525 1525 1525 1526 1526 1526 1526 1527 1527 1527 1528 1529 1530 1532 1533 1534 1536 1538 1539 1541 1542 1544 1545 1547 1547 1548 1548 1549
1501 1504 1506 1508 1511 1513 1516 1517 1518 1519 1520 1522 1523 1524 1524 1524 1524 1524 1524 1524 1524 1524 1524 1524 1525 1525 1526 1526 1527 1528 1530 1531 1533 1535 1537 1538 1540 1541 1542 1543 1544 1544 1545
1500 1503 1506 1508 1511 1513 1516 1517 1518 1520 1521 1521 1523 1523 1523 1524 1524 1524 1523 1523 1523 1522 1522 1522 1522 1523 1523 1524 1525 1525 1526 1527 1529 1531 1533 1535 1537 1538 1539 1540 1540 1541 1541
1500 1503 1506 1508 1511 1513 1515 1517 1518 1520 1521 1522 1523 1523 1524 1524 1524 1523 1523 1522 1522 1521 1521 1521 1521 1521 1521 1522 1523 1523 1524 1524 1526 1529 1531 1533 1534 1535 1536 1537 1538 1538 1538
1500 1503 1506 1508 1511 1513 1515 1517 1519 1520 1522 1522 1523 1524 1525 1524 1524 1524 1523 1523 1522 1522 1521 1521 1521 1521 1521 1522 1523 1523 1523 1524 1526 1528 1529 1531 1532 1534 1534 1535 1535 1536 1536
1500 1503 1506 1508 1511 1513 1516 1518 1519 1521 1522 1523 1524 1524 1525 1525 1525 1524 1524 1523 1522 1522 1522 1521 1521 1521 1522 1523 1523 1524 1524 1525 1526 1528 1529 1530 1531 1533 1533 1534 1534 1534 1535
1499 1503 1506 1508 1511 1513 1515 1517 1519 1520 1522 1523 1523 1524 1525 1525 1525 1525 1525 1524 1523 1523 1523 1523 1523 1523 1523 1524 1525 1525 1526 1526 1528 1529 1530 1531 1532 1533 1533 1534 1534 1534 1534
1500 1503 1506 1508 1511 1513 1515 1517 1519 1520 1521 1522 1523 1524 1524 1525 1525 1525 1525 1525 1525 1524 1524 1524 1525 1525 1525 1526 1527 1527 1528 1528 1529 1529 1530 1532 1532 1533 1533 1534 1534 1534 1535
1499 1503 1506 1508 1511 1513 1515 1517 1519 1520 1521 1523 1523 1524 1525 1525 1526 1526 1526 1526 1526 1526 1525 1526 1526 1527 1527 1528 1528 1529 1529 1530 1530 1530 1531 1532 1533 1533 1534 1534 1534 1535 1536
1498 1502 1506 1508 1511 1513 1515 1517 1519 1520 1522 1522 1523 1524 1525 1526 1526 1527 1527 1527 1528 1527 1527 1528 1528 1529 1529 1529 1530 1530 1531 1531 1531 1532 1533 1534 1534 1534 1534 1535 1536 1536 1537
1497 1502 1505 1508 1511 1514 1516 1517 1519 1520 1522 1522 1523 1525 1526 1526 1527 1528 1528 1529 1529 1529 1530 1530 1530 1531 1531 1532 1532 1533 1533 1533 1534 1534 1535 1536 1536 1536 1536 1537 1537 1538 1538
1497 1501 1505 1508 1511 1513 1515 1517 1519 1520 1522 1523 1524 1525 1526 1527 1528 1529 1530 1530 1530 1531 1532 1532 1532 1533 1534 1534 1535 1535 1536 1536 1536 1536 1537 1537 1538 1538 1538 1538 1539 1539 1539
1498 1501 1505 1508 1511 1513 1516 1517 1519 1520 1522 1523 1524 1526 1527 1528 1529 1530 1531 1532 1532 1533 1534 1534 1535 1536 1536 1537 1538 1538 1538 1538 1538 1538 1539 1539 1540 1540 1540 1540 1540 1541 1541
1499 1502 1505 1509 1511 1513 1515 1517 1519 1521 1523 1524 1525 1527 1528 1530 1531 1532 1533 1534 1535 1535 1536 1537 1538 1538 1539 1540 1540 1540 1540 1540 1541 1541 1541 1541 1542 1542 1542 1542 1542 1542 1542